Regional Weather Roundup
Issued by NWS

Home | Current Version | Previous Version | Graphics & Text | Print | Product List | Glossary On
Versions: 1 2 3 4 5 6 7 8 9 10 11 12 13 14 15 16 17 18 19 20 21 22 23 24 25 26 27 28 29 30 31 32 33 34 35 36 37 38 39 40 41 42 43 44 45 46 47 48 49 50
000
ASUS43 KMKX 281011
RWRWI

WISCONSIN REGIONAL WEATHER ROUNDUP
NATIONAL WEATHER SERVICE MILWAUKEE/SULLIVAN WI
500 AM CDT SAT MAY 28 2016

NOTE: "FAIR" INDICATES FEW OR NO CLOUDS BELOW 12,000 FEET WITH NO
SIGNIFICANT WEATHER AND/OR OBSTRUCTIONS TO VISIBILITY.

WIZ001-002-006>008-014>016-023>028-281100-
NORTHWEST WISCONSIN

CITY           SKY/WX    TMP DP  RH WIND       PRES   REMARKS
SUPERIOR ARPT  FOG       44  44 100 CALM      29.81R VSB 1
ASHLAND        CLOUDY    47  45  93 S3        29.78R FOG
HAYWARD        CLOUDY    56  55  97 CALM      29.78R FOG
SIREN          FOG       55  54  97 N5        29.78S VSB 3/4
CUMBERLAND     FOG       55  55 100 CALM      29.78S VSB 1/2
RICE LAKE      CLOUDY    59  57  95 CALM      29.77F FOG
CHETEK         CLOUDY    60  60 100 N7        29.76F FOG
LADYSMITH      FOG       64  63  97 W6        29.77F VSB 1/2
EAU CLAIRE     FOG       61  61 100 CALM      29.75S VSB 1/2
MENOMONIE      FOG       63  63  99 CALM      29.76S VSB 1/4
NEW RICHMOND   FOG       61  61 100 N3        29.77R VSB 3/4
OSCEOLA        FOG       58  58 100 N5        29.79S VSB 1/2
$$

WIZ003>005-009-010-017-018-281100-
NORTH CENTRAL WISCONSIN

CITY           SKY/WX    TMP DP  RH WIND       PRES   REMARKS
MANITOWISH WTR NOT AVBL
ARBOR VITAE    CLOUDY    65  64  94 S3        29.79S
WOODRUFF       CLOUDY    65  64  94 S3        29.79S
RHINELANDER    CLOUDY    66  64  93 CALM      29.80S
EAGLE RIVER      N/A     64  64  99 S6        29.80R FOG
LAND O LAKES   CLOUDY    64  64  99 S5        29.81S FOG
PHILLIPS       CLOUDY    64  64 100 CALM      29.77S
TOMAHAWK       CLOUDY    65  63  96 CALM      29.79F FOG
MEDFORD        CLOUDY    65  65 100 CALM      29.77F
MERRILL        CLOUDY    66  66 100 CALM      29.79F FOG
$$

WIZ029-030-035-036-043>047-281100-
CENTRAL WISCONSIN

CITY           SKY/WX    TMP DP  RH WIND       PRES   REMARKS
WAUSAU         CLOUDY    69  66  90 SE5       29.76F FOG
MOSINEE        CLOUDY    64  64 100 S6        29.79F FOG
MARSHFIELD     CLOUDY    68  65  90 CALM      29.76F FOG
STEVENS POINT  CLOUDY    66  65  97 SE5       29.78F FOG
WAUPACA        CLOUDY    69  69 100 SE7       29.79F
WAUTOMA        LGT RAIN  68  66  93 SE7       29.79S
WISC RAPIDS    CLOUDY    68  65  90 SE5       29.77F FOG
CAMP DOUGLAS   DRIZZLE   68 N/A N/A E8        29.73F
$$

WIZ011>013-019>022-031-037>040-048>050-281100-
NORTHEAST WISCONSIN

CITY           SKY/WX    TMP DP  RH WIND       PRES   REMARKS
ANTIGO         FOG       65  65 100 S7        29.81S VSB 1
SHAWANO        CLOUDY    67  66  95 CALM      29.80S FOG
OCONTO         CLOUDY   N/A N/A N/A S5        29.81S
STURGEON BAY   NOT AVBL
GREEN BAY      CLOUDY    68  65  90 S7        29.81S
MANITOWOC      LGT RAIN  57  56  96 E5        29.84S FOG
APPLETON       RAIN      66  66 100 S8        29.80S
CLINTONVILLE   CLOUDY    68  66  94 S6        29.80S FOG
OSHKOSH        LGT RAIN  68  64  87 S12       29.80S
$$

WIZ032>034-041-042-053>061-281100-
SOUTHWEST WISCONSIN

CITY           SKY/WX    TMP DP  RH WIND       PRES   REMARKS
LA CROSSE      LGT RAIN  68  66  93 N5        29.71F
SPARTA         RAIN      64  64 100 CALM      29.73F
VIROQUA        CLOUDY    66  66 100 SE7       29.74S
BOSCOBEL       RAIN      67  66  97 NW6       29.71R FOG
PRAIRIE DU CHI HVY RAIN  66  64  94 CALM      29.71S
PLATTEVILLE    CLOUDY    68  67  97 S15       29.73F
$$

WIZ056-057-062-063-064-067-068-281100-
SOUTH CENTRAL WISCONSIN

CITY           SKY/WX    TMP DP  RH WIND       PRES   REMARKS
REEDSBURG      CLOUDY    67  67  99 SE6       29.74F
BARABOO/DELLS  DRIZZLE   67  64  91 SE8       29.76S
LONE ROCK      CLOUDY    69  66  90 E9        29.73F
MINERAL POINT  CLOUDY    68  68 100 SE12G18   29.74F
MADISON        LGT RAIN  68  66  93 SE12      29.77F
MIDDLETON      CLOUDY    69  67  94 S7        29.77F
WATERTOWN      CLOUDY    67  67 100 S8        29.81S
MONROE         DRIZZLE   66  64  94 S16G23    29.78S
JANESVILLE     CLOUDY    70  66  88 S16       29.80S
$$

WIZ051-052-058>065-066-070>072-281100-
SOUTHEAST WISCONSIN

CITY           SKY/WX    TMP DP  RH WIND       PRES   REMARKS
MILWAUKEE      CLOUDY    64  61  90 SE9       29.84S
WAUKESHA       CLOUDY    66  63  88 S9        29.85R
MILWAUKEE/TIMM CLOUDY    68  61  77 S6        29.84S
RACINE         CLOUDY    62  58  86 S8        29.86F
BURLINGTON     LGT RAIN  66  64  94 S6        29.83S
KENOSHA        CLOUDY    68  63  84 S12       29.85S
FOND DU LAC    CLOUDY    68  65  90 S8        29.81S
SHEBOYGAN      CLOUDY    65  62  90 SE6       29.84R
WEST BEND      CLOUDY    66  63  88 SE3       29.84R
JUNEAU         CLOUDY    66  64  94 SE9       29.82S
$$

LSZ147-162-281100-
LAKE SUPERIOR

STATION/POSITION TIME  TEMP    WIND        PRES    WAVE
                       AIR SEA DIR/SP/G            HT/PER
                 (UTC) (F)     (DEG/KT/KT) (MB)    (FT/S)
W MID LAKE BUOY  0950   40 38   60/ 10/ 12 1008.4F   3/ 4
DEVILS ISLAND    1000   43      80/  3/  3 1008.9R
SAXON HARBOR     0900   47     310/  6/  7 1007.5S
$$

LMZ867-665-643>646-281100-
LAKE MICHIGAN

STATION/POSITION TIME  TEMP    WIND        PRES    WAVE
                       AIR SEA DIR/SP/G            HT/PER
                 (UTC) (F)     (DEG/KT/KT) (MB)    (FT/S)
CHAMBERS ISLAND  0900   59     140/  4/  9 1009.8R
N MID LAKE BUOY  0950   54 46  180/ 12/ 14 1010.6R   1
NORTHPORT PIER   0900   56     160/  9/ 14 1010.2R
SISTER BAY       0950   57     170/ 14/ 18   N/A
ALGOMA LAKESHORE 0917          200/  6/  7   N/A
KEWAUNEE LAKESHO 0900   53     170/ 12/ 15 1009.5R
SHEBOYGAN LAKESH 1000   54     170/ 14/ 15 1011.1R
PORT WASHINGTON  0900   57     190/  8/  9 1011.2
S MID LAKE BUOY  0950   56 50  140/ 10/ 12 1011.4F   1/ 3
KENOSHA   LAKESH 1000   57     170/ 12/ 15 1010.8S
$$

TC  - TEMPERATURE IN CELSIUS
VSB - VISIBILITY IN STATUTE MILES
WCI - WIND CHILL INDEX
HX  - HEAT INDEX





USA.gov is the U.S. government's official web portal to all federal, state and local government web resources and services.